SES-18

Last updated on Sun Nov 02 2025 00:02:51 GMT+0000 (Coordinated Universal Time)

1 55970U 23038A 25305.59006388 -.00000090 00000+0 00000+0 0 9994 2 55970 0.0135 264.6797 0002798 341.6669 264.1316 1.00272245 9824
UTC large
Height (km)
Speed (km/s)
/
Latitude / Longitude
Inclination (degrees)
Orbital Period (minutes)
Azimuth
Elevation
Range (km)
Doppler Factor

Next 0 passes for location: London (51.5072 / 0.1276)

Sorry there are no passes over London.